Theta_e
321 326 325 327 331 327 328 323 321 321 321 320 319 321 321 321 324 326 316 317 319 321 323 321 325 327 328 330 329 331 332 332 332 332 332 333 332 332 332 331 333 334 334 335 335 335 336 335 335
324 324 325 329 329 331 326 320 320 320 319 318 318 319 320 320 317 313 312 316 317 319 320 319 321 324 325 324 327 327 328 328 328 328 329 328 326 325 325 326 325 326 327 328 329 330 330 331 332
321 322 327 329 327 325 324 321 319 318 317 318 318 317 318 318 315 313 312 314 315 317 316 316 318 321 321 320 320 320 320 321 320 323 322 320 318 317 317 317 317 318 320 321 322 323 323 325 326
322 322 322 321 322 321 321 320 318 317 317 317 318 318 314 313 315 314 310 313 314 314 314 315 316 317 318 317 315 314 312 311 310 313 313 311 307 307 307 305 303 303 304 307 311 312 314 315 317
319 323 325 324 322 320 319 319 319 318 317 316 317 318 316 311 311 310 309 312 312 312 312 310 314 314 315 314 314 313 312 310 305 304 303 301 299 298 298 299 299 300 304 308 308 304 305 302 301
322 321 324 323 323 320 319 319 318 318 317 316 315 316 315 311 308 307 307 309 309 309 309 307 309 310 310 310 309 308 306 303 301 300 299 297 297 297 297 297 297 297 298 298 298 298 299 298 298
323 327 325 323 322 322 320 318 318 318 318 316 317 317 312 308 308 306 304 305 305 306 306 303 302 302 302 301 302 301 299 298 297 296 296 296 296 296 296 296 296 296 296 297 297 297 297 297 297
320 322 323 323 322 322 319 317 316 318 319 316 315 316 315 310 308 305 304 303 302 301 301 302 301 299 298 297 297 296 296 296 296 296 296 298 297 296 295 295 296 298 300 303 303 304 302 299 303
320 321 323 324 322 322 316 317 315 314 316 316 314 315 311 309 307 304 303 302 301 300 300 300 300 299 300 298 295 295 295 295 296 297 298 298 296 296 296 295 296 296 297 300 300 301 301 296 297
321 325 326 321 319 320 317 316 316 315 314 315 314 310 310 308 306 304 303 302 302 300 300 300 300 299 299 298 295 298 297 298 297 297 296 297 297 296 296 295 294 294 294 294 294 294 294 294 295
320 322 321 320 319 317 317 317 316 315 315 315 314 312 307 307 305 304 304 303 302 301 300 299 299 299 298 297 298 297 298 297 296 295 296 296 296 295 295 295 294 294 293 293 293 293 293 293 294
320 320 320 319 317 317 316 317 316 314 315 317 315 315 307 306 305 305 305 305 304 302 301 299 299 299 298 297 298 298 297 297 296 295 295 295 295 295 295 294 293 293 293 292 292 292 292 292 293
319 318 319 318 316 315 315 314 315 314 313 314 314 313 308 307 306 306 306 306 305 303 301 299 298 298 298 298 298 298 297 297 296 295 294 294 294 294 293 293 292 292 292 291 291 291 291 291 292
318 317 316 317 316 315 315 315 315 314 313 313 314 310 310 308 308 308 307 307 306 304 302 300 298 298 298 297 297 297 297 296 295 294 294 293 293 293 292 292 292 292 291 290 290 291 291 291 291
317 315 316 316 316 316 316 315 314 313 315 314 313 312 309 309 310 309 308 307 307 306 303 300 298 297 297 297 297 296 296 295 294 294 292 292 292 292 291 291 291 290 289 289 289 290 290 290 290
315 316 317 318 316 314 314 315 316 314 313 312 312 311 311 309 310 310 310 308 307 306 303 300 298 297 297 296 296 296 295 294 294 293 292 292 291 291 290 290 290 289 289 289 289 289 289 289 289
317 317 318 319 317 314 313 315 318 315 315 313 311 311 311 310 309 311 311 310 308 306 302 299 298 297 296 296 296 295 295 293 293 292 292 291 290 290 289 289 289 289 288 288 289 289 288 288 288
318 318 317 317 316 315 314 314 314 314 313 311 311 311 311 311 310 311 311 310 308 306 302 299 297 296 296 295 295 294 294 293 293 292 291 291 290 290 289 289 289 288 288 288 288 288 287 287 288
316 317 317 317 316 315 314 315 315 315 313 313 314 314 312 312 311 312 310 309 307 305 301 299 297 295 295 295 294 293 293 292 292 291 291 291 290 289 289 289 289 288 287 287 287 287 287 287 287
316 316 316 316 315 314 314 315 314 314 314 314 314 313 313 311 310 308 308 308 306 303 301 299 297 295 295 294 293 293 292 292 292 291 291 290 289 289 288 288 288 287 287 286 286 287 287 286 287
315 315 315 315 314 312 313 313 313 312 313 313 313 312 312 310 309 307 306 305 305 302 300 298 297 296 294 294 293 293 293 293 292 291 290 289 289 288 288 288 287 286 286 285 286 286 286 286 286
314 314 315 315 314 315 313 314 314 314 313 312 311 310 310 308 308 307 305 304 303 301 300 298 296 296 295 294 293 293 292 291 291 291 290 289 288 288 288 287 286 286 285 285 285 285 286 285 285
314 312 313 314 315 316 316 315 313 312 312 312 311 310 311 311 308 306 305 304 302 301 299 298 296 296 295 294 293 293 292 292 292 290 290 289 288 287 287 286 286 285 285 284 284 285 285 284 285
310 312 312 312 312 314 313 314 313 312 312 312 310 309 309 308 307 306 305 304 302 301 299 297 296 296 295 294 293 293 292 291 291 291 289 289 288 287 286 286 285 285 284 284 283 283 284 284 283
311 314 316 318 315 316 312 313 314 313 310 309 309 309 308 307 305 304 302 301 301 299 298 297 296 295 295 294 293 292 292 291 291 290 289 288 287 286 286 285 285 284 283 283 283 283 282 282 282
310 313 317 317 315 315 314 313 313 312 311 309 308 309 307 306 305 304 302 301 301 300 298 297 295 294 294 294 293 292 291 291 291 290 290 289 288 287 286 285 284 283 283 282 281 281 281 281 281
312 312 314 315 308 312 313 311 312 311 310 309 309 308 306 305 304 304 303 301 301 300 298 297 295 294 293 293 292 292 291 291 291 290 289 288 287 286 285 284 283 282 281 281 280 280 280 280 280
308 309 313 314 311 311 311 309 312 313 313 308 308 307 307 306 304 303 302 301 301 300 299 297 295 294 294 293 292 291 290 290 290 289 288 287 286 285 284 283 282 281 281 280 280 279 279 279 279
306 308 309 310 315 313 312 313 308 313 313 310 307 308 307 307 305 303 302 302 302 300 299 297 295 294 294 293 292 291 290 290 289 288 287 286 285 284 283 282 281 280 280 279 279 278 278 278 277
308 310 309 312 313 311 312 316 309 310 311 309 308 308 307 307 305 303 302 300 300 300 298 297 295 294 294 293 292 291 290 289 287 287 286 285 284 283 282 281 280 279 279 278 277 277 277 276 276
Wind_Speed
2 6 8 5 1 3 5 5 5 5 1 4 7 3 2 7 2 2 10 10 11 10 5 7 10 9 8 8 6 4 6 7 6 5 6 6 4 8 8 10 11 12 11 8 9 10 9 8 8
3 4 4 4 2 4 3 8 5 7 6 7 6 4 1 3 6 9 11 13 12 11 9 7 10 10 10 7 7 7 7 4 4 8 9 9 7 6 9 8 8 8 9 10 9 10 9 9 10
0 3 2 3 4 6 3 4 9 8 6 4 4 2 4 4 8 17 12 17 13 11 8 9 9 10 10 10 9 7 6 5 5 9 9 7 6 7 7 7 8 9 11 12 11 11 12 12 11
4 4 4 2 9 9 4 3 14 8 3 5 2 3 5 3 9 14 18 17 15 12 9 12 10 11 11 10 9 8 7 7 6 7 6 7 7 8 8 9 10 10 11 11 12 12 12 13 14
4 4 3 6 10 4 5 4 10 8 8 8 4 4 4 7 12 16 20 17 16 14 11 12 12 12 11 11 10 10 10 9 7 6 5 5 5 6 7 8 9 11 11 12 13 13 13 14 14
3 2 3 6 5 5 3 3 6 9 9 6 6 4 5 19 19 18 18 17 15 15 13 10 13 12 10 9 9 8 7 6 6 6 6 6 7 8 8 10 10 10 10 11 12 14 15 15 16
3 3 6 10 8 4 6 6 5 7 7 7 2 4 4 13 19 20 19 18 17 16 13 10 9 9 9 8 8 6 6 4 5 5 6 8 8 8 9 8 9 10 11 12 12 13 13 13 14
3 2 6 5 5 5 4 6 3 6 5 3 8 6 5 16 24 22 19 18 17 15 15 14 11 8 8 8 8 7 6 7 8 7 8 8 8 8 10 12 12 13 14 15 16 16 16 15 14
1 3 5 8 1 0 6 5 5 1 2 3 7 3 4 30 27 23 21 19 19 18 17 16 15 14 11 9 9 8 8 8 7 8 10 8 6 7 9 13 13 13 15 14 16 17 16 16 15
4 3 5 3 6 3 7 7 6 2 5 6 5 8 12 27 27 22 22 23 25 23 21 19 17 16 14 9 8 6 6 5 5 6 6 6 5 8 7 9 12 13 14 14 15 15 16 17 17
6 5 0 4 2 4 6 6 7 7 8 8 12 11 15 19 22 21 23 25 28 26 24 22 20 18 16 15 12 10 8 7 5 5 6 6 4 4 6 8 11 12 14 15 16 16 17 18 17
4 10 9 2 3 1 4 4 7 11 11 2 3 5 17 18 18 24 25 27 28 28 27 24 22 21 19 18 15 13 11 10 7 6 5 4 2 3 5 8 10 12 14 16 16 16 17 17 17
7 9 7 6 3 5 8 9 8 13 11 14 7 2 15 16 21 27 28 29 29 31 30 29 25 24 22 21 17 15 14 12 10 8 5 5 3 1 3 5 8 10 13 15 15 15 15 16 18
3 7 10 7 9 6 6 6 5 9 15 14 10 11 11 14 20 23 29 30 33 33 33 32 29 27 24 22 20 19 15 15 11 10 7 6 4 1 2 4 7 9 12 12 13 13 14 16 17
4 7 9 11 10 5 5 9 15 22 5 8 11 11 12 13 23 28 32 31 34 35 35 34 31 27 26 24 22 20 18 15 14 12 9 7 5 1 1 3 4 7 10 10 10 12 14 17 17
4 5 4 3 12 6 9 14 12 18 12 13 11 9 10 13 18 25 29 32 33 33 36 34 32 30 28 26 25 22 21 18 16 13 11 8 6 3 2 0 2 6 9 10 11 13 17 19 20
9 7 10 8 11 8 10 10 3 4 5 7 10 11 11 12 16 28 31 30 33 35 36 36 33 32 30 27 25 22 21 19 17 16 14 11 8 5 4 2 3 7 9 11 12 14 17 21 24
7 10 9 10 8 8 7 17 14 9 6 10 11 11 13 13 15 25 34 34 34 35 36 36 36 33 32 28 26 23 23 22 20 19 16 14 11 8 6 3 4 7 9 10 10 15 16 18 21
13 15 16 20 8 9 15 17 18 17 9 11 15 17 12 14 12 27 34 35 35 36 37 37 37 34 34 33 32 29 29 26 24 21 19 17 14 11 8 5 5 6 8 9 11 13 16 21 20
8 12 17 16 8 9 11 13 12 10 16 16 17 17 18 11 9 10 27 35 37 39 39 38 40 39 39 39 36 26 30 26 25 22 21 18 16 13 9 6 6 6 8 9 10 10 14 16 7
18 13 19 17 12 5 4 7 12 11 18 20 19 19 18 12 10 10 17 27 32 34 40 42 42 40 37 35 34 20 25 18 23 24 24 22 19 16 12 9 8 8 9 9 8 10 11 13 15
21 9 10 11 7 9 9 7 8 7 9 10 14 13 16 9 9 12 13 21 31 35 38 39 37 39 39 36 37 36 32 28 28 35 28 23 20 17 14 12 11 10 10 10 10 9 13 14 16
15 5 4 4 6 6 7 7 7 11 9 12 11 13 17 6 10 12 15 25 28 33 37 39 37 38 37 40 38 38 34 30 26 27 25 24 21 18 15 14 12 12 11 11 11 13 16 16 17
4 1 4 3 2 8 12 12 8 8 9 6 8 12 10 8 8 8 13 23 26 34 35 36 38 39 41 41 41 40 37 32 28 32 31 27 23 19 17 15 14 13 13 13 13 14 16 17 19
3 4 3 3 2 11 12 13 17 5 7 10 11 18 9 9 9 9 11 12 21 29 33 37 40 37 42 44 43 42 40 36 36 36 34 29 24 22 20 16 15 15 13 12 14 17 18 18 20
8 9 5 7 5 17 5 8 6 9 12 11 14 15 10 10 9 10 11 12 20 26 34 35 37 37 39 43 42 40 40 39 38 38 35 31 28 24 18 17 17 17 15 14 15 17 19 19 21
5 7 3 3 1 4 11 11 6 7 11 11 15 7 9 9 9 10 9 14 20 25 32 36 35 35 36 39 37 38 40 39 40 37 33 30 27 23 21 20 18 16 15 15 15 17 20 19 21
3 1 2 2 2 8 21 10 15 7 17 11 8 9 7 8 9 9 9 13 25 28 31 33 34 35 36 37 39 37 39 41 38 37 35 32 27 23 21 19 18 17 15 15 15 17 19 19 21
3 4 5 2 5 7 14 12 3 5 6 9 10 7 7 8 9 10 9 16 25 29 32 33 35 37 37 40 39 36 39 40 39 38 36 32 27 24 21 19 17 15 15 15 16 19 20 21 22
8 11 11 9 11 4 6 26 7 4 3 8 7 8 8 7 9 9 10 12 20 27 27 32 32 34 39 38 40 41 40 40 39 38 35 31 27 24 22 19 17 16 16 16 17 19 20 20 22
Wind_Direction
39 351 315 287 268 206 257 164 75 109 105 60 323 54 52 65 351 193 140 139 128 120 101 116 100 96 121 118 120 122 109 106 103 104 92 84 85 67 62 57 52 48 42 37 27 21 11 358 359
88 303 268 275 251 264 301 101 150 151 70 80 37 48 338 84 94 123 139 155 145 136 143 126 114 105 103 130 147 143 120 120 95 82 80 74 62 52 50 37 26 17 20 20 17 16 358 10 7
116 279 274 209 234 256 18 92 124 78 98 135 142 17 359 95 107 145 153 153 146 141 159 136 124 113 107 101 101 110 115 121 105 87 82 73 62 57 47 40 35 34 32 23 18 8 9 2 351
297 201 267 256 270 293 36 57 110 115 60 334 46 171 85 68 134 160 155 152 151 151 167 138 127 119 113 110 108 106 106 109 107 100 82 72 64 57 46 36 25 14 8 5 9 6 360 340 329
246 269 257 224 249 240 95 330 123 161 156 165 168 165 140 155 131 153 155 160 158 158 168 151 134 129 123 118 114 109 104 102 105 102 94 74 53 41 35 28 23 24 22 23 14 4 353 346 339
273 235 274 255 295 100 89 165 162 178 169 114 166 282 144 156 154 159 160 164 165 160 173 162 148 138 133 132 126 125 120 114 106 98 83 66 56 51 45 36 30 23 14 10 4 0 357 353 348
256 281 258 284 308 294 169 132 220 207 174 174 90 209 116 160 168 165 165 168 170 181 175 175 171 167 166 163 155 149 139 123 102 94 93 88 75 66 57 53 44 33 29 25 20 13 5 2 357
319 281 271 260 262 336 103 151 48 259 231 42 139 225 201 180 168 166 170 172 175 184 182 182 184 172 180 183 183 167 150 131 117 113 113 91 63 63 56 43 43 37 35 28 20 13 9 11 7
255 279 267 269 302 217 108 204 147 83 184 204 182 333 78 150 160 167 174 179 185 189 191 192 187 182 198 181 168 149 135 130 126 97 90 85 68 62 36 36 42 31 32 24 19 15 12 8 4
217 229 259 25 354 287 164 213 169 197 223 226 199 116 130 152 164 176 183 189 193 191 192 198 193 191 192 190 178 164 143 142 141 123 106 99 64 57 50 34 27 22 22 15 12 10 3 2 359
219 230 215 316 312 356 292 216 242 180 250 207 215 192 161 166 179 192 198 200 197 196 199 199 197 195 194 187 190 178 175 177 159 133 125 111 95 64 36 22 18 16 13 9 4 1 359 356 354
263 245 262 325 58 300 247 289 257 219 230 339 207 232 165 177 188 198 202 204 200 198 198 198 199 199 195 196 193 189 191 191 191 172 149 135 112 45 21 15 13 8 6 3 359 355 353 351 348
221 267 276 266 184 248 278 257 255 259 247 241 233 185 172 188 198 203 206 206 203 199 197 196 194 200 195 199 188 191 194 190 193 192 174 163 163 106 31 20 10 3 1 357 354 352 348 346 341
30 296 290 258 214 220 230 256 215 239 236 244 231 195 196 196 200 203 206 206 205 200 197 193 195 201 199 193 194 193 193 195 188 197 193 181 190 165 20 12 8 355 353 353 352 347 339 336 332
291 301 267 239 218 232 176 273 231 244 247 232 229 215 198 212 203 208 208 204 202 202 196 191 195 199 201 193 197 196 194 196 193 203 202 197 200 184 19 10 7 343 344 343 340 336 333 330 326
227 227 278 230 178 162 142 270 228 246 209 216 233 243 222 210 221 217 215 206 205 198 192 190 193 195 199 193 197 197 198 194 198 205 206 207 205 196 192 269 331 329 334 337 339 339 329 328 324
223 252 236 263 180 136 178 255 265 82 149 215 227 235 234 224 220 213 212 208 201 200 190 188 188 193 196 195 198 196 202 192 198 199 205 204 202 204 207 242 310 328 334 339 340 328 328 325 327
222 231 248 251 195 186 205 250 266 242 214 244 246 237 239 242 225 205 203 201 196 195 190 190 188 192 195 192 195 196 202 195 198 204 201 208 211 214 219 247 301 321 326 333 326 316 323 323 324
256 267 270 270 257 177 231 240 252 261 240 256 262 259 252 247 236 207 193 191 189 189 186 188 186 191 193 190 188 193 200 197 202 202 205 210 212 215 220 239 276 300 310 311 308 317 319 322 337
272 271 266 277 294 211 249 253 254 264 267 255 256 267 261 254 240 183 169 182 185 183 185 187 190 194 196 195 195 196 200 205 206 203 207 208 212 218 225 241 261 274 284 288 302 316 306 312 333
248 245 259 264 285 221 319 268 254 252 252 260 262 254 259 243 226 169 169 176 176 179 184 189 192 195 195 197 197 192 192 185 191 203 206 206 210 217 220 230 241 252 265 278 289 289 293 288 297
263 231 257 266 278 256 161 282 222 226 230 227 244 253 255 238 218 163 166 173 177 184 187 192 192 195 198 196 198 195 184 177 197 205 205 204 210 212 219 225 234 243 253 257 267 272 266 268 275
265 171 219 268 261 302 252 280 227 202 233 243 238 253 260 219 178 159 178 177 180 181 189 193 195 199 198 199 200 200 203 207 210 205 200 200 206 216 219 226 233 239 245 251 254 254 260 267 266
129 114 218 233 211 255 207 214 241 203 212 223 232 248 243 155 155 150 157 168 177 186 191 192 197 202 203 202 202 206 205 205 191 182 186 199 207 214 220 224 230 236 240 244 250 257 258 266 267
179 143 279 287 191 252 187 221 239 182 177 191 212 243 150 156 166 168 163 171 177 183 187 194 198 201 202 205 204 207 210 205 197 195 201 199 200 206 215 222 226 232 240 244 247 258 266 266 265
187 179 173 237 219 274 229 255 247 214 231 207 203 244 157 170 174 180 178 180 186 186 190 194 199 203 200 204 205 206 210 206 205 206 208 207 206 210 210 215 225 233 242 250 256 261 266 266 266
183 211 198 248 130 307 240 262 305 254 238 218 225 162 174 182 179 185 182 183 188 192 193 200 200 204 203 204 204 206 209 206 205 204 208 207 208 209 210 219 230 238 245 252 258 263 269 272 276
201 200 123 219 256 241 275 282 273 197 237 219 225 218 223 204 193 189 190 186 192 200 203 204 205 205 205 206 206 205 208 207 205 203 205 207 209 212 217 225 233 238 244 252 260 267 273 275 276
155 237 232 246 192 230 271 271 304 161 149 196 222 219 231 204 195 191 198 194 197 203 204 203 205 205 206 207 204 204 206 205 202 203 208 208 208 213 221 229 238 247 256 262 267 270 275 277 277
216 224 185 221 237 230 235 264 153 120 138 149 191 196 204 193 197 202 204 182 193 204 202 203 205 204 207 205 203 203 204 200 198 202 205 205 206 211 218 225 236 246 254 263 265 270 273 273 277